Location: Newark
(44.1667°N, 8.2500°E)
Time: 02:28:30
(UTC+00:00)

S-56A Canister/Altair - Pass Details

Date: 15 December 2019
Orbit: 634 x 2498 km, 38.9° (Epoch: 20 January)

Event Time Altitude Azimuth Distance (km) Brightness Sun altitude
Rises 05:09:24 0° 174° (S) 4,857 11.9 -18.1°
Reaches altitude 10° 05:14:42 10° 151° (SSE) 4,269 11.9 -17.2°
Maximum altitude 05:19:56 14° 124° (SE) 4,267 12.4 -16.3°
Drops below altitude 10° 05:25:46 10° 99° (E) 4,886 13.0 -15.3°
Sets 05:32:43 0° 78° (ENE) 6,113 13.2 -14.1°
